COSMOS 249 DEB, 3606

Orbit data source: Space-Track

COSMOS 249 DEB, 3606 is space debris in LEO originally from a launch on Sun, 20 Oct 1968 UTC launched from the Tyuratam Missile And Space Complex (TTMTR). Debris objects in space refer to the collection of defunct objects orbiting the Earth. Examples of debris include non-operational satellites, rocket bodies, and fragments generated from explosions, collisions, or faulty payload assembly.

Loading next visibility...
Identifier
3606, 1968-091Y
Orbit
LEO
Country
Flag of CISCIS
Related business
Manufacturer
Unknown
Mission
Spacecraft
Bus & Motor
Unknown
Mass
Unknown
Launch date (UTC)
1968-10-20 (57 years ago)
Launch vehicle
Unknown
Launch site
Tyuratam Missile And Space Complex (TTMTR)
Object type
Payload
Rocket body
Debris
Shape & HBR
Unknown shape, 0.1 m
Radar Cross Section
Small (<0.1 m²)

Expand to show TLE details & history
Last TLE update: 1 day ago

TLE from 1 day ago
0 COSMOS 249 DEB
1 03606U 68091Y   25312.23368209  .00001152  00000-0  10069-2 0  9992
2 03606  62.2554 302.5857 0735015 233.3240 119.8030 13.05617092655810
Epoch: 2025-11-08T05:36Z
TLE epoch observation values (Epoch: 2025-11-08T05:36:30.132Z)
Latitude
-0.00008°
Longitude
170.79388°
Altitude
1,549.412 km
Speed
6.948 km/s
True Right ascension
20h 10m 20s
True Declination
0° 00' 00"
Sunlit
Object was in daylight at epoch
Visualization orbit readout
Latitude
Unknown
Longitude
Unknown
Altitude
Unknown
Speed
Unknown
Apparent Right ascension
Unknown
Apparent Declination
Unknown
Sunlit
N/A
Visualization observer readout
Local Sidereal Time
03:51:33
Azimuth
Unknown
Elevation
Unknown
Doppler factor
Unknown
Orbital elements
Apogee altitude
1,799.028 km
Perigee altitude
679.265 km
Semi-major axis
7,617.283 km
Eccentricity
0.0735
Inclination
62.2554°
RAAN
302.5857°
Arg. of periapsis
233.324°
True anomaly
126.77484°
Mean anomaly
119.803°
Eccentric anomaly
123.32197°
Mean motion
3.2647 °/min
Orbital period
110.27 mins
BSTAR
0.0010069
Loading maneuver chart data...
Computing Atmospheric mass density...
Loading historical data...
Loading historical data...
Loading historical data...
Loading historical data...
Loading historical data...
Loading historical data...
Loading historical data...

Documentation

Showing up to 5 results
|